CW9244 Weather Reports


Display with metric or nautical units.
time (UTC)temp
F
wind
direction
speed
MPH
gust
MPH
rain 1hr
in
rain 24hr
in
rain mn
in
humidity
%
barometer
mb
20260510061222 56 180 0.0 0.0 0.00 1.26 0.00 94 1027.4
20260510060222 56 180 0.0 0.0 0.00 1.26 0.00 94 1027.4
20260510060121 56 180 0.0 0.0 0.00 1.26 0.00 94 1027.3
20260510055122 56 180 0.0 0.0 0.00 1.26 0.00 94 1027.4
20260510053224 56 180 0.0 0.0 0.00 1.26 0.00 94 1027.6
20260510052322 56 180 0.0 0.0 0.00 1.26 0.00 94 1027.6
20260510045323 56 180 0.0 0.0 0.00 1.26 0.00 93 1027.8
20260510044323 56 180 0.0 0.0 0.00 1.26 0.00 93 1027.7
20260510043422 55 180 0.0 0.0 0.00 1.26 0.00 93 1027.7
20260510042421 55 180 0.0 0.0 0.00 1.26 0.00 93 1027.7
20260510041423 55 180 0.0 0.0 0.00 1.26 0.00 93 1027.6
20260510040421 55 180 0.0 0.0 0.00 1.26 0.00 93 1027.3
20260510035425 55 180 0.0 0.0 0.00 1.26 1.26 93 1027.1
20260510035326 55 180 0.0 0.0 0.00 1.26 1.26 94 1027.2
20260510034324 55 180 0.0 0.0 0.00 1.26 1.26 93 1027.3
20260510033424 55 180 0.0 0.0 0.00 1.26 1.26 93 1027.3
20260510032425 55 180 0.0 0.0 0.00 1.26 1.26 93 1027.2
20260510031524 55 180 0.0 0.0 0.00 1.26 1.26 93 1027.3
20260510030526 55 180 0.0 0.0 0.00 1.26 1.26 93 1027.4
20260510025525 55 180 0.0 0.0 0.00 1.26 1.26 93 1027.4
20260510024624 55 180 0.0 0.0 0.00 1.26 1.26 93 1027.4
20260510023626 55 180 0.0 0.0 0.00 1.26 1.26 93 1027.3
20260510022626 55 337 0.0 0.0 0.00 1.26 1.26 93 1027.4
20260510021625 55 337 0.0 0.0 0.00 1.26 1.26 93 1027.3
20260510020626 55 337 0.0 0.0 0.00 1.26 1.26 93 1027.3
20260510014725 55 135 0.0 0.0 0.00 1.26 1.26 93 1027.2
20260510013725 54 112 0.0 0.0 0.00 1.26 1.26 93 1027.2
20260510012725 54 112 0.0 0.0 0.00 1.26 1.26 93 1027.2
20260510011727 54 112 0.0 0.0 0.00 1.26 1.26 93 1027.1
20260510010723 54 112 0.0 0.0 0.00 1.26 1.26 93 1027.0
20260510005724 55 112 0.0 0.0 0.00 1.26 1.26 93 1027.0
20260510004724 55 112 0.0 0.0 0.00 1.26 1.26 93 1026.9
20260510003724 56 112 0.0 0.0 0.00 1.26 1.26 93 1026.8
20260510002725 56 112 0.0 0.0 0.01 1.26 1.26 93 1026.7
20260510001725 56 292 0.0 0.0 0.02 1.26 1.26 93 1026.5
20260509234826 56 292 1.0 2.0 0.20 1.26 1.26 93 1026.6
20260509233826 56 112 0.0 0.0 0.20 1.26 1.26 93 1027.0
20260509232825 56 112 0.0 0.0 0.20 1.26 1.25 93 1026.8
20260509231825 56 112 0.0 1.0 0.19 1.25 1.24 93 1027.0
20260509230827 56 112 0.0 0.0 0.16 1.21 1.20 93 1027.2
20260509225825 55 336 2.0 2.0 0.02 1.07 1.07 92 1027.4
20260509224828 55 180 0.0 0.0 0.02 1.06 1.06 92 1027.1
20260509223925 55 180 0.0 0.0 0.02 1.06 1.06 92 1027.3
20260509222925 55 180 0.0 0.0 0.02 1.06 1.06 92 1027.4
20260509221924 55 180 0.0 0.0 0.05 1.06 1.06 92 1027.3
20260509220924 55 337 0.0 0.0 0.06 1.05 1.05 91 1027.4
20260509215927 55 337 0.0 0.0 0.06 1.05 1.05 91 1027.7
20260509214925 55 337 0.0 0.0 0.07 1.04 1.04 91 1027.8
20260509213926 55 337 0.0 0.0 0.07 1.04 1.04 91 1027.7
20260509212925 55 337 0.0 0.0 0.10 1.04 1.04 91 1027.6
20260509211927 55 5 1.0 4.0 0.09 1.01 1.01 91 1027.9
20260509210925 56 181 0.0 1.0 0.13 0.99 0.99 91 1027.8
20260509205925 56 180 0.0 0.0 0.23 0.99 0.98 91 1027.7
20260509205024 56 67 0.0 1.0 0.28 0.97 0.97 91 1027.6
20260509203027 57 315 0.0 0.0 0.39 0.95 0.94 91 1027.7
20260509202024 56 315 0.0 0.0 0.42 0.92 0.92 91 1027.9
20260509201025 56 157 0.0 1.0 0.41 0.87 0.86 90 1028.1
20260509200025 57 292 0.0 0.0 0.40 0.77 0.76 90 1028.0
20260509195027 56 77 0.0 1.0 0.37 0.68 0.67 90 1028.2
20260509193126 56 228 0.0 2.0 0.47 0.56 0.56 89 1028.2
20260509191125 56 351 0.0 2.0 0.46 0.46 0.46 88 1028.3
20260509184225 57 324 0.0 2.0 0.21 0.21 0.20 83 1028.3
20260509183225 58 181 1.0 2.0 0.10 0.10 0.09 81 1028.1
20260509182324 60 277 0.0 0.0 0.03 0.03 0.03 77 1028.1
20260509180327 63 165 0.0 2.0 0.00 0.00 0.00 69 1027.7
20260509174325 64 265 1.0 4.0 0.00 0.00 0.00 67 1027.3
20260509172325 64 196 1.0 3.0 0.00 0.00 0.00 67 1027.3
20260509171424 63 225 0.0 3.0 0.00 0.00 0.00 68 1027.4
20260509170425 63 180 0.0 1.0 0.00 0.00 0.00 68 1027.5
20260509165425 63 143 1.0 2.0 0.00 0.00 0.00 68 1027.8
20260509164524 62 202 1.0 2.0 0.00 0.00 0.00 68 1027.8
20260509162524 64 202 0.0 2.0 0.00 0.00 0.00 66 1028.1
20260509161524 64 170 0.0 1.0 0.00 0.00 0.00 66 1028.1
20260509161427 64 218 0.0 2.0 0.00 0.00 0.00 66 1028.1
20260509160424 64 180 1.0 2.0 0.00 0.00 0.00 66 1028.3
20260509155427 64 196 0.0 1.0 0.00 0.00 0.00 66 1028.4
20260509153624 63 266 0.0 1.0 0.00 0.00 0.00 68 1028.5
20260509152625 62 179 0.0 3.0 0.00 0.00 0.00 69 1028.6
20260509145725 62 202 1.0 3.0 0.00 0.00 0.00 67 1028.9
20260509143726 61 202 0.0 3.0 0.00 0.00 0.00 68 1028.8
20260509141825 61 202 1.0 2.0 0.00 0.00 0.00 68 1028.8
20260509140826 62 90 0.0 1.0 0.00 0.00 0.00 68 1028.7
20260509135924 61 202 0.0 2.0 0.00 0.00 0.00 69 1028.8
20260509134925 60 202 0.0 1.0 0.00 0.00 0.00 71 1029.0
20260509133925 59 200 0.0 1.0 0.00 0.00 0.00 72 1029.0
20260509132927 58 202 0.0 1.0 0.00 0.00 0.00 73 1028.9
20260509131924 58 180 0.0 1.0 0.00 0.00 0.00 73 1029.1
20260509130927 58 180 0.0 0.0 0.00 0.00 0.00 74 1029.2
20260509130023 58 180 0.0 2.0 0.00 0.00 0.00 76 1029.2
20260509125025 58 202 0.0 1.0 0.00 0.00 0.00 79 1029.1
20260509123125 56 157 0.0 0.0 0.00 0.00 0.00 83 1029.3
20260509121126 55 157 0.0 0.0 0.00 0.00 0.00 85 1029.3
20260509120125 54 157 0.0 0.0 0.00 0.00 0.00 86 1029.3
20260509115126 54 157 0.0 0.0 0.00 0.00 0.00 86 1029.4
20260509114225 54 157 0.0 0.0 0.00 0.00 0.00 86 1029.4
20260509113225 53 157 0.0 0.0 0.00 0.00 0.00 87 1029.4
20260509112225 53 157 0.0 0.0 0.00 0.00 0.00 88 1029.5
20260509105326 52 157 0.0 0.0 0.00 0.00 0.00 88 1029.3
20260509104424 52 157 0.0 0.0 0.00 0.00 0.00 89 1029.2
20260509102524 52 157 0.0 0.0 0.00 0.00 0.00 88 1028.9
20260509101526 52 157 0.0 0.0 0.00 0.00 0.00 88 1028.8
20260509100524 52 157 0.0 0.0 0.00 0.00 0.00 88 1028.8
20260509095526 52 157 0.0 0.0 0.00 0.00 0.00 88 1028.8
20260509094528 51 247 0.0 0.0 0.00 0.00 0.00 88 1028.7
20260509093624 51 247 0.0 0.0 0.00 0.00 0.00 87 1028.9
20260509092624 51 247 0.0 0.0 0.00 0.00 0.00 87 1028.7
20260509091626 51 247 0.0 0.0 0.00 0.00 0.00 87 1028.7
20260509090627 51 247 0.0 0.0 0.00 0.00 0.00 87 1028.5
20260509084724 51 247 0.0 0.0 0.00 0.00 0.00 87 1028.9
20260509083723 51 247 0.0 0.0 0.00 0.00 0.00 87 1029.0
20260509082725 51 247 0.0 0.0 0.00 0.00 0.00 87 1029.1
20260509081725 51 247 0.0 0.0 0.00 0.00 0.00 87 1029.1
20260509080726 51 247 0.0 0.0 0.00 0.00 0.00 86 1029.2
20260509074825 51 247 0.0 0.0 0.00 0.00 0.00 87 1028.8
20260509073826 51 247 0.0 0.0 0.00 0.00 0.00 86 1028.7
20260509072923 51 247 0.0 0.0 0.00 0.00 0.00 86 1028.7
20260509071926 51 247 0.0 0.0 0.00 0.00 0.00 85 1028.6
20260509070927 51 247 0.0 0.0 0.00 0.00 0.00 85 1029.0
20260509065926 51 247 0.0 0.0 0.00 0.00 0.00 84 1028.9
20260509064926 51 247 0.0 0.0 0.00 0.00 0.00 84 1029.2
20260509063926 51 247 0.0 0.0 0.00 0.00 0.00 83 1029.4
20260509062925 51 247 0.0 0.0 0.00 0.00 0.00 83 1029.7
20260509061927 51 247 0.0 0.0 0.00 0.00 0.00 83 1029.5